Cahokia, IL

10:59 AM CST on December 11, 2019 (GMT -0600)
Saint Louis Downtown

Weather History for KCPS - October, 2019

Change the Weather History Date:

Wednesday, October 23, 2019

  Actual Average Record
Temperature  
Mean Temperature 55 °F -  
Max Temperature 73 °F 72 °F 84 °F (1963)
Min Temperature 37 °F 48 °F 30 °F (1998)
Degree Days  
Heating Degree Days 10    
Growing Degree Days 5 (Base 50)    
Moisture  
Dew Point 37 °F    
Average Humidity 50    
Maximum Humidity 83    
Minimum Humidity 25    
Precipitation  
Precipitation 0.00 in - - ()
Sea Level Pressure  
Sea Level Pressure 30.00 in    
Wind  
Wind Speed 5 mph (SSW)    
Max Wind Speed 15 mph    
Max Gust Speed 31 mph    
Visibility 10 miles    
Events      
Averages and records for this station are not official NWS values.
T = Trace of Precipitation, MM = Missing Value Source: NWS Daily Summary

Daily Weather History Graph

Daily Weather History Graph

Search for Another Location

Airport or City:

Astronomy

Oct. 23, 2019 Rise Set
Actual Time 7:17 AM CDT 6:11 PM CDT
Civil Twilight 6:50 AM CDT 6:38 PM CDT
Nautical Twilight 6:19 AM CDT 7:09 PM CDT
Astronomical Twilight 5:48 AM CDT 7:40 PM CDT
Moon 1:41 AM CDT (10/23) 3:57 PM CDT (10/23)
Length of Visible Light 11h 48m
Length of Day
10h 54m
Waning Crescent, 26% of the Moon is Illuminated
Oct 23
Waning Crescent
Oct 27
New
Nov 4
First Quarter
Nov 12
Full
Nov 19
Last Quarter

Hourly Weather History & Observations

Time (CDT) Temp. Windchill Dew Point Humidity Pressure Visibility Wind Dir Wind Speed Gust Speed Precip Events Conditions
12:53 AM 42.1 °F - 32.0 °F 67% 30.01 in 10.0 mi Calm Calm - N/A   Clear
1:53 AM 39.0 °F - 34.0 °F 82% 30.00 in 10.0 mi Calm Calm - N/A   Clear
2:53 AM 39.9 °F 37.8 °F 32.0 °F 73% 30.00 in 10.0 mi South 3.5 mph - N/A   Clear
3:53 AM 37.9 °F - 33.1 °F 83% 30.01 in 10.0 mi Calm Calm - N/A   Clear
4:53 AM 37.9 °F - 33.1 °F 83% 30.01 in 10.0 mi Calm Calm - N/A   Clear
5:53 AM 42.1 °F 38.4 °F 33.1 °F 70% 30.02 in 10.0 mi SSE 5.8 mph - N/A   Clear
6:53 AM 42.1 °F - 33.1 °F 70% 30.03 in 10.0 mi Calm Calm - N/A   Clear
7:53 AM 39.9 °F - 34.0 °F 79% 30.04 in 10.0 mi Calm Calm - N/A   Clear
8:53 AM 52.0 °F - 36.0 °F 54% 30.04 in 10.0 mi SSW 6.9 mph - N/A   Clear
9:53 AM 57.0 °F - 36.0 °F 45% 30.05 in 10.0 mi SSW 8.1 mph - N/A   Clear
10:53 AM 63.0 °F - 36.0 °F 37% 30.04 in 10.0 mi North - - N/A   Clear
11:53 AM 68.0 °F - 37.9 °F 33% 30.02 in 10.0 mi SSW 9.2 mph 25.3 mph N/A   Clear
12:53 PM 71.1 °F - 36.0 °F 28% 29.98 in 10.0 mi SW 11.5 mph 19.6 mph N/A   Clear
1:53 PM 73.0 °F - 36.0 °F 26% 29.96 in 10.0 mi South 10.4 mph 21.9 mph N/A   Clear
2:53 PM 73.9 °F - 36.0 °F 25% 29.94 in 10.0 mi SSW 15.0 mph 31.1 mph N/A   Clear
3:53 PM 73.9 °F - 39.0 °F 28% 29.93 in 10.0 mi South 11.5 mph 25.3 mph N/A   Clear
4:53 PM 72.0 °F - 39.0 °F 30% 29.93 in 10.0 mi South 11.5 mph 20.7 mph N/A   Partly Cloudy
5:53 PM 69.1 °F - 37.9 °F 32% 29.93 in 10.0 mi South 11.5 mph 26.5 mph N/A   Clear
6:53 PM 66.0 °F - 39.9 °F 38% 29.96 in 10.0 mi South 10.4 mph - N/A   Clear
7:53 PM 64.0 °F - 41.0 °F 43% 30.00 in 10.0 mi South 6.9 mph - N/A   Clear
8:53 PM 63.0 °F - 41.0 °F 45% 30.02 in 10.0 mi South 9.2 mph - N/A   Clear
9:53 PM 63.0 °F - 42.1 °F 46% 30.04 in 10.0 mi SSW 10.4 mph 19.6 mph N/A   Clear
10:53 PM 63.0 °F - 41.0 °F 45% 30.04 in 10.0 mi SSW 8.1 mph 18.4 mph N/A   Clear
11:53 PM 64.0 °F - 41.0 °F 43% 30.05 in 10.0 mi SSW 8.1 mph 18.4 mph N/A   Partly Cloudy